Flag for Italy Weather past 2 weeks in Modena, Italy

Now
64 °F

Clear.


Feels Like: 64 °F
Forecast: 53 / 71 °F
Wind: 8 mph from Southwest

Location: Bologna / Borgo Panigale

Current Time: May 26, 2015 at 12:28:41 AM

Latest Report: May 25, 2015 at 11:50 PM


Visibility: 10 mi

Pressure: 29.80 "Hg

Humidity: 64%

Dew point: 52 °F

Location of ModenaLocation

Historic Weather in Modena — Graph

°F

Modena temperature yesterday

Maximum temperature yesterday: 77 °F (at 1:50 PM)
Minimum temperature yesterday: 54 °F (at 5:20 AM)
Average temperature yesterday: 65 °F

Past Weeks' High & Low Weather Summary

 TemperatureHumidityPressure
High84 °F (May 14, 3:50 PM)100% (May 16, 7:50 AM)30.27 "Hg (May 16, 7:50 AM)
Low48 °F (May 21, 3:50 AM)30% (May 11, 5:20 PM)29.65 "Hg (May 15, 3:20 AM)
Average66 °F70%29.94 "Hg
* Reported May 10 10:20 PM — May 25 10:50 PM, Modena, Weather by CustomWeather, © 2015

Note: Actual official high and low records may vary slightly from our data, if they occured in-between our weather recording intervals... More about our weather records

Advertising

Modena weather history for previous 24 hours

 ConditionsComfort  
Time TempWeatherWind HumidityBarometerVisibility
10:50 PM
Mon, May 25
64 °FClear.9 mph68%29.80 "Hg10 mi
10:20 PM63 °FClear.8 mph73%29.80 "Hg10 mi
9:50 PM64 °FClear.8 mph68%29.80 "Hg10 mi
9:20 PM64 °FPassing clouds.8 mph64%29.80 "HgN/A
8:50 PM66 °FScattered clouds.7 mph60%29.80 "HgN/A
8:20 PM66 °FScattered clouds.7 mph64%29.80 "HgN/A
7:50 PM70 °FScattered clouds.7 mph57%29.83 "HgN/A
7:20 PM70 °FScattered clouds.6 mph57%29.83 "HgN/A
6:50 PM70 °FScattered clouds.7 mph53%29.83 "HgN/A
6:20 PM68 °FScattered showers. Scattered clouds.8 mph60%29.83 "HgN/A
5:50 PM70 °FScattered showers. Scattered clouds.10 mph60%29.83 "HgN/A
5:20 PM70 °FPartly sunny.15 mph57%29.83 "HgN/A
4:50 PM73 °FPartly sunny.5 mph50%29.83 "HgN/A
4:20 PM75 °FPassing clouds.6 mph47%29.83 "HgN/A
3:50 PM77 °FPassing clouds.6 mph42%29.83 "HgN/A
3:20 PM77 °FPassing clouds.6 mph44%29.83 "HgN/A
2:50 PM77 °FPassing clouds.5 mph39%29.86 "HgN/A
2:20 PM75 °FPassing clouds.5 mph44%29.86 "HgN/A
1:50 PM77 °FPassing clouds.3 mph34%29.86 "HgN/A
1:20 PM75 °FPassing clouds.5 mph39%29.89 "HgN/A
12:50 PM73 °FPassing clouds.3 mph44%29.89 "HgN/A
12:20 PM73 °FPassing clouds.5 mph38%29.89 "HgN/A
11:50 AM73 °FSunny.3 mph47%29.89 "Hg10 mi
11:20 AM73 °FSunny.3 mph44%29.92 "Hg10 mi
10:50 AM72 °FPassing clouds.5 mph47%29.92 "HgN/A
10:20 AM68 °FPassing clouds.6 mph64%29.92 "HgN/A
9:50 AM66 °FSunny.5 mph60%29.92 "Hg10 mi
9:20 AM64 °FPassing clouds.6 mph64%29.92 "HgN/A
8:50 AM63 °FPassing clouds.5 mph68%29.92 "HgN/A
8:20 AM61 °FSunny.6 mph72%29.92 "Hg10 mi
7:50 AM59 °FSunny.7 mph72%29.92 "Hg10 mi
7:20 AM57 °FPassing clouds.7 mph77%29.92 "HgN/A
6:50 AM55 °FPassing clouds.9 mph82%29.92 "HgN/A
6:20 AM54 °FPassing clouds.8 mph82%29.92 "HgN/A
5:50 AM54 °FPassing clouds.6 mph88%29.92 "HgN/A
5:20 AM54 °FClear.9 mph88%29.92 "Hg10 mi
4:50 AM55 °FClear.8 mph82%29.92 "Hg10 mi
4:20 AM55 °FClear.9 mph82%29.92 "Hg10 mi
3:50 AM55 °FClear.9 mph82%29.92 "Hg10 mi
3:20 AM55 °FClear.8 mph82%29.92 "Hg10 mi
2:50 AM55 °FClear.9 mph82%29.95 "Hg10 mi
2:20 AM55 °FClear.8 mph88%29.95 "Hg10 mi
1:50 AM55 °FClear.9 mph88%29.95 "Hg10 mi
1:20 AM55 °FClear.8 mph88%29.95 "Hg10 mi
12:50 AM57 °FClear.7 mph82%29.95 "Hg10 mi
12:20 AM57 °FClear.7 mph88%29.95 "Hg10 mi
Weather by CustomWeather, © 2015

See weather overviewHow to use our weather pages